{"data":{"norad_id":62494,"epoch":"2026-05-24T22:09:16.716096Z","epoch_age_seconds":81997,"freshness":"FRESH","line1":"1 62494U 25003H   26144.92311014  .00008104  00000+0  30352-3 0  9991","line2":"2 62494  43.0027 218.1726 0001935 276.0983  83.9648 15.27598822 78331","mean_motion":15.27598822,"eccentricity":0.0001935,"inclination_deg":43.0027,"raan_deg":218.1726,"arg_perigee_deg":276.0983,"mean_anomaly_deg":83.9648,"bstar":0.00030352,"rev_number":7833,"period_min":94.265587224968,"perigee_km":481.6651081751,"apogee_km":484.32036538323,"semimajor_km":6861.1297367792,"source":"CELESTRAK","updated_at":"2026-05-25T13:38:19.697593Z"}}